This demonstration page uses our WeatherBlox Daily Observations layout. Learn more.

Left ArrowRight Arrow

44.31136, -96.79839

Hourly Observations for August 24, 2022

Temp ( °F °C ) Dew Point ( °F °C ) Humidity (%) Winds ( mph kmh ) Pressure ( in mb ) Visibility ( mi km ) Precip ( " mm )
12:56 am 00:56 Clear 70 21.1 67 19.4 90 90 SSE 9 15 29.93 1014 10 16 0.00 0.00
1:56 am 01:56 Clear 68 20 67 19.4 96 96 SE 6 9 29.92 1013 10 16 0.00 0.00
2:56 am 02:56 Clear 66 18.9 66 18.9 100 100 Calm 29.93 1014 10 16 0.00 0.00
3:56 am 03:56 Clear 63 17.2 63 17.2 100 100 Calm 29.94 1014 7 11 0.00 0.00
4:56 am 04:56 Clear 63 17.2 63 17.2 100 100 Calm 29.95 1014 7 11 0.00 0.00
5:56 am 05:56 Clear 65 18.3 65 18.3 100 100 SE 5 7 29.95 1014 10 16 0.00 0.00
6:56 am 06:56 Mostly Cloudy with Mist and Fog 63 17.2 63 17.2 100 100 NNW 3 6 29.98 1015 5 8 0.00 0.00
7:56 am 07:56 Mostly Cloudy with Light Rain 65 18.3 65 18.3 100 100 W 7 11 29.99 1016 7 11 0.01 0.13
8:56 am 08:56 Mostly Cloudy 67 19.4 67 19.4 100 100 N 3 6 30.01 1016 7 11 0.00 0.00
9:56 am 09:56 Mostly Cloudy 70 21.1 70 21.1 100 100 NW 12 19 30.02 1017 9 14 0.00 0.00
10:46 am 10:46 Cloudy 72 22 70 21 94 94 N 10 17 29.97 1015 10 16 0.00 0.00
10:56 am 10:56 Cloudy 72 22.2 69 20.6 91 91 N 8 13 30.04 1017 10 16 0.00 0.00
11:13 am 11:13 Mostly Cloudy 73 23 70 21 89 89 N 8 13 29.96 1015 10 16 0.00 0.00
11:32 am 11:32 Mostly Cloudy 73 23 70 21 89 89 N 7 11 29.96 1015 10 16 0.00 0.00
11:56 am 11:56 Mostly Cloudy 80 26.7 67 19.4 64 64 NNE 7 11 30.04 1017 10 16 0.00 0.00
12:14 pm 12:14 Mostly Cloudy 81 27 68 20 66 66 NNW 7 11 29.95 1014 10 16 0.00 0.00
12:56 pm 12:56 Cloudy 78 25.6 68 20 71 71 N 10 17 30.05 1018 10 16 0.00 0.00
1:21 pm 13:21 Cloudy 79 26 68 20 70 70 N 8 13 29.96 1014 10 16 0.00 0.00
1:51 pm 13:51 Mostly Cloudy 79 26 68 20 70 70 NNW 8 13 29.96 1014 10 16 0.00 0.00
1:56 pm 13:56 Cloudy 79 26.1 68 20 69 69 NNW 7 11 30.05 1018 10 16 0.00 0.00
2:30 pm 14:30 Partly Cloudy 81 27 66 19 62 62 N 12 19 29.95 1014 10 16 0.00 0.00
2:56 pm 14:56 Partly Cloudy 81 27.2 67 19.4 62 62 N 13 20 30.04 1017 10 16 0.00 0.00
3:56 pm 15:56 Mostly Sunny 84 28.9 67 19.4 57 57 N 12 19 30.03 1017 10 16 0.00 0.00
4:56 pm 16:56 Sunny 83 28.3 68 20 61 61 NE 9 15 30.04 1017 10 16 0.00 0.00
5:56 pm 17:56 Mostly Cloudy 80 26.7 67 19.4 64 64 NNE 5 7 30.04 1017 10 16 0.00 0.00
6:56 pm 18:56 Mostly Cloudy 79 26.1 67 19.4 67 67 NNE 9 15 30.05 1018 10 16 0.00 0.00
7:56 pm 19:56 Sunny 73 22.8 64 17.8 73 73 NNE 8 13 30.07 1018 10 16 0.00 0.00
8:56 pm 20:56 Clear 69 20.6 64 17.8 84 84 NNE 7 11 30.09 1019 10 16 0.00 0.00
9:56 pm 21:56 Clear 65 18.3 65 18.3 100 100 N 5 7 30.12 1020 10 16 0.00 0.00
10:56 pm 22:56 Clear 64 17.8 64 17.8 100 100 N 6 9 30.12 1020 10 16 0.00 0.00
11:56 pm 23:56 Clear 61 16.1 61 16.1 100 100 N 7 11 30.11 1020 10 16 0.00 0.00

Powered by AerisWeather